Regional Weather Roundup
Issued by NWS

Home | Current Version | Previous Version | Graphics & Text | Print | Product List | Glossary Off
Versions: 1 2 3 4 5 6 7 8 9 10 11 12 13 14 15 16 17 18 19 20 21 22 23 24 25 26 27 28 29 30 31 32 33 34 35 36 37 38 39 40 41 42 43 44 45 46 47 48 49 50

000
ASUS43 KMPX 222201
RWRMN
WEATHER ROUNDUP FOR MINNESOTA
NATIONAL WEATHER SERVICE TWIN CITIES/CHANHASSEN MN
500 PM CDT WED MAR 22 2017


NOTE: "FAIR" INDICATES FEW OR NO CLOUDS BELOW 12,000 FEET WITH NO
SIGNIFICANT WEATHER AND/OR OBSTRUCTIONS TO VISIBILITY. N/A MEANS
CURRENT SKY AND/OR WEATHER CONDITIONS ARE NOT AVAILABLE.

MNZ060>063-068>070-222300-
   Twin Cities Metro

CITY           SKY/WX    TMP DP  RH WIND       PRES   REMARKS
TWIN CITIES    PTSUNNY   39  12  33 SE15      30.40F
ST PAUL        CLOUDY    39  13  34 S14       30.41F
CRYSTAL        CLOUDY    38  11  32 S13G23    30.38F
BLAINE         PTSUNNY   39  10  30 SE14      30.39F
LAKEVILLE      MOSUNNY   37  18  44 SE12      30.39F
EDEN PRAIRIE   CLOUDY    41  15  35 SE17G23   30.38F
SOUTH ST PAUL  CLOUDY    39  11  31 SE13      30.40F
LAKE ELMO      FAIR      37  12  35 SE10      30.41F
$$
MNZ001>005-007-008-013>017-022>024-027-028-222300-
   Northwest Minnesota

CITY           SKY/WX    TMP DP  RH WIND       PRES   REMARKS
BEMIDJI        CLOUDY    33   9  37 SE10      30.26F WCI  24
HALLOCK        PTSUNNY   30  18  59 SE23      30.18F WCI  17
ROSEAU         CLOUDY    34  14  44 SE14      30.23F WCI  24
WARROAD        CLOUDY    32  10  40 SE12      30.25F WCI  23
THIEF RVR FALL   N/A    N/A N/A N/A MISG        N/A
CROOKSTON      CLOUDY    32  16  51 S24       30.22F WCI  19
FOSSTON        CLOUDY    32  10  40 SE13      30.24F WCI  22
DETROIT LAKES  CLOUDY    32  12  43 SE20G26   30.24F WCI  20
MOORHEAD       CLOUDY    32  12  43 S24       30.22F WCI  19
PARK RAPIDS    CLOUDY    35   7  31 SE18      30.27F WCI  24
MAHNOMEN       CLOUDY    29  22  74 SE10G21   30.24F WCI  20
$$
MNZ006-009>011-018-025>026-222300-
   North Central Minnesota

CITY           SKY/WX    TMP DP  RH WIND       PRES   REMARKS
BAUDETTE       CLOUDY    34   8  33 SE10      30.25F WCI  26
FLAG ISLAND    CLOUDY    28  16  59 S16       30.25F WCI  17
INTL FALLS     MOSUNNY   34   9  35 SE13      30.30F WCI  25
WASKISH        PTSUNNY   36   9  32 SE12      30.27F
BIG FORK       CLOUDY    36   7  30 S12G17    30.31F
LONGVILLE      CLOUDY    34   7  32 SE10G17   30.30F WCI  26
GRAND RAPIDS   MOSUNNY   35   7  31 S16G23    30.33F WCI  25
CRANE LAKE     CLOUDY    34   3  27 S6        30.37F WCI  29
ORR            MOSUNNY   36   1  23 CALM      30.30F
COOK           MOSUNNY   36   5  27 SE10      30.33F
WALKER         CLOUDY    34   7  32 SE17      30.28F WCI  23
$$
MNZ012-019>021-037-222300-
   Northeast Minnesota

CITY           SKY/WX    TMP DP  RH WIND       PRES   REMARKS
DULUTH         CLOUDY    30  14  51 SE10      30.37F WCI  21
ELY            SUNNY     34   5  29 S13       30.35F WCI  25
HIBBING        MOSUNNY   33   6  32 S12G18    30.33F WCI  24
EVELETH        SUNNY     35  -1  22 S9G18     30.36F WCI  28
DULUTH HARBOR  CLOUDY    30  21  69 NE3       30.44F
TWO HARBORS    MOSUNNY   34  18  51 E8        30.39F WCI  27
SILVER BAY     MOSUNNY   27  16  63 E6        30.41F WCI  20
GRAND MARAIS     N/A     27  13  55 CALM      30.48F
G MARAIS ARPRT SUNNY     19   7  58 S6        30.39F WCI  11
$$
MNZ029>031-032-039>041-046>048-054>057-064-222300-
   West Central Minnesota

CITY           SKY/WX    TMP DP  RH WIND       PRES   REMARKS
FERGUS FALLS   CLOUDY    34  18  51 S21G29    30.29F WCI  22
WHEATON        FLURRIES  32  25  74 SE24      30.24F WCI  19
MORRIS         MIX PCPN  34  21  60 SE22      30.25F WCI  22
ALEXANDRIA     CLOUDY    33  17  51 SE18G26   30.28F WCI  22
ELBOW LAKE     CLOUDY    31  22  68 E18G29    30.26F WCI  20
WADENA         CLOUDY    32  10  40 S18G25    30.28F WCI  20
GLENWOOD       CLOUDY    34  19  55 SE18G26   30.30F WCI  23
APPLETON       CLOUDY    36  23  60 SE15G24   30.27F
BENSON         CLOUDY    37  18  44 S17G26    30.30F
ORTONVILLE     CLOUDY    34  23  64 SE25      30.23F WCI  21
MADISON        CLOUDY    36  28  75 SE22G28   30.25F
WILLMAR        FAIR      36  23  60 SE18G24   30.32F
$$
MNZ033>034-036-042>043-049>051-058-059-222300-
   Central Minnesota

CITY           SKY/WX    TMP DP  RH WIND       PRES   REMARKS
ST CLOUD       CLOUDY    36  12  37 SE16      30.35F
SAUK CENTRE    FAIR      33  19  54 SE16      30.32F WCI  23
PAYNESVILLE      N/A     34  18  52 SE15G22   30.34F WCI  25
AITKIN         PTSUNNY   39   0  19 SE14G21   30.32F
PINE RIVER     CLOUDY    36  12  38 S17G23    30.32F
BRAINERD       MOSUNNY   36   6  28 SE12G22   30.32F
STAPLES        CLOUDY    34   7  32 S14       30.30F WCI  24
LONG PRAIRIE   PTSUNNY   32  14  47 E20       30.32F WCI  20
LITTLE FALLS   CLOUDY    36   7  30 SE14G21   30.34F
LITCHFIELD     CLOUDY    36  19  51 SE8G18    30.36S
BUFFALO        PTSUNNY   37  14  38 SE10      30.38F
MAPLE LAKE     CLOUDY    38  20  48 SE9G18    30.37F
HUTCHINSON     PTSUNNY   37  22  55 S10G20    30.36F
$$
MNZ037-044-045-052-053-222300-
   East Central Minnesota

CITY           SKY/WX    TMP DP  RH WIND       PRES   REMARKS
PRINCETON      CLOUDY    39   7  26 SE15      30.38F
MORA           MOSUNNY   36   9  32 S12       30.39F
CAMBRIDGE      PTSUNNY   39  18  41 S13G18    30.37F
RUSH CITY      MOSUNNY   37   9  32 SE8       30.40F
MOOSE LAKE     PTSUNNY   36   9  32 S10       30.36F
HINCKLEY       FAIR      37  10  32 SE8       30.38F
CLOQUET        MOSUNNY   34   9  35 E6        30.37F WCI  29
MCGREGOR       MOSUNNY   36   9  32 S13       30.35F
$$
MNZ071>073-080-081-089-090-097-098-222300-
   Southwest Minnesota

CITY           SKY/WX    TMP DP  RH WIND       PRES   REMARKS
MONTEVIDEO     CLOUDY    34  25  69 S16G22    30.30F WCI  23
GRANITE FALLS  CLOUDY    36  26  68 SE20      30.31F
CANBY          CLOUDY    34  28  80 E17       30.25F WCI  23
MARSHALL       MIX PCPN  33  27  78 SE18      30.27F WCI  22
REDWOOD FALLS  CLOUDY    36  22  56 SE21G29   30.32F
OLIVIA         CLOUDY    36  25  64 S16       30.32F
PIPESTONE      CLOUDY    34  23  64 SE17G26   30.21F WCI  23
WINDOM         CLOUDY    34  25  69 SE14      30.31F WCI  24
WORTHINGTON    CLOUDY    32  25  75 SE16G23   30.27F WCI  21
JACKSON        CLOUDY    34  25  69 SE13      30.32F WCI  25
TRACY          MIX PCPN  33  29  85 SE15G22   30.28F WCI  23
SLAYTON        CLOUDY    31  28  88 SE18      30.26F WCI  19
$$
MNZ065>067-074>077-082>085-091>093-222300-
   South Central Minnesota

CITY           SKY/WX    TMP DP  RH WIND       PRES   REMARKS
MANKATO        CLOUDY    37  21  52 SE18      30.37
NEW ULM        CLOUDY    36  21  55 S16       30.35F
ST JAMES       CLOUDY    36  25  64 SE15      30.36F
FAIRMONT       CLOUDY    36  24  62 SE16      30.34F
GLENCOE        CLOUDY    37  23  57 SE12G20   30.36F
FARIBAULT      CLOUDY    37  18  44 SE12      30.39F
OWATONNA       CLOUDY    39  18  41 SE13G21   30.38F
WASECA         CLOUDY    36  23  60 SE16      30.38F
ALBERT LEA     CLOUDY    37  19  48 SE13G18   30.37F
$$
MNZ078>079-086>088-094>096-222300-
   Southeast Minnesota

CITY           SKY/WX    TMP DP  RH WIND       PRES   REMARKS
ROCHESTER      CLOUDY    36  16  44 SE14      30.40F
RED WING       CLOUDY    39   9  28 S9        30.41F
STANTON        SUNNY     39  13  35 SE8G20    30.40S
DODGE CENTER   CLOUDY    36  18  48 SE15      30.39F
WINONA         MOSUNNY   39  10  30 E6        30.45F
AUSTIN         CLOUDY    39  16  38 S10       30.38F
PRESTON        CLOUDY    37   9  31 SE12      30.41F
$$
ABBREVIATIONS USED IN REMARKS
   TC - TEMPERATURES IN CELSIUS
  WCI - WIND CHILL INDEX
   HX - HEAT INDEX
  VSB - VISIBILITY
$$




USA.gov is the U.S. government's official web portal to all federal, state and local government web resources and services.